Location: Borovka
(49.7741°N, 14.5280°E)
Time: 02:33:44
(UTC+00:00)

ESTCUBE 1 - Pass Details

Date: 22 March 2026
Orbit: 620 x 631 km, 97.7° (Epoch: 13 April)

Event Time Altitude Azimuth Distance (km) Brightness Sun altitude
Exits shadow 20:57:44 17° 266° (W) 1,599 ? -32.1°
Maximum altitude 20:58:01 17° 271° (W) 1,596 ? -32.1°
Drops below altitude 10° 21:00:54 10° 312° (NW) 2,018 ? -32.4°
Sets 21:03:49 0° 333° (NNW) 2,933 ? -32.7°
